sat.trackr.live / text

‹ back to catalog

STARLINK-32199

NORAD 60320 · 2024-133V

PAYLOAD ACTIVE UNKNOWN

§ Identity

Operator
Country
US
Launch date
2024-07-28
Launch site
AFWTR
Launch vehicle
Mass (kg)
RCS (m²)

Purposes: comms

External: N2YO · Heavens-Above · Gunter

§ Orbital elements

Epoch: 2026-05-24T20:40:01.356384Z

Period
94.11 min
Inclination
53.1618°
Eccentricity
0.0000998
Mean motion
15.30198396 rev/d
Perigee alt
474.5 km
Apogee alt
475.9 km
Semi-major
6,853.4 km
B*
2.6050e-5
RAAN
303.1694°
Arg perigee
106.7957°
Mean anomaly
253.3153°
Rev number
10,330

§ Raw data

STARLINK-321991 60320U 24133V   26144.86112681  .00000413  00000+0  26050-4 0  99982 60320  53.1618 303.1694 0000998 106.7957 253.3153 15.30198396103308

JSON: /api/v1/satellites/60320 · /tle

For live sub-satellite position, see the globe view (requires WebGL).

§ Visibility from observer

Set your observer location to see the next 7 days of passes ≥ 10°. The values pass through the URL so the page stays shareable.

No JS? Fill the form by hand. The geolocation button needs JavaScript.